Location: ??
(35.4747°N, 139.3435°E)
Time: 12:33:28
(UTC+00:00)

Daily predictions for brighter satellites

Satellite Brightness Start Highest point End
(mag) Time Altitude Azimuth Time Altitude Azimuth Time Altitude Azimuth
Cosmos 1933 Rocket 4.1 12:04:44 54° W 12:04:49 54° W 12:09:09 10° N
Cosmos 1741 Rocket 4.3 12:06:43 46° SW 12:08:06 64° WNW 12:13:21 10° N
Cosmos 2173 Rocket 4.3 12:10:04 50° ENE 12:10:04 50° ENE 12:15:13 10° NNE
Meteor 1-18 Rocket 4.1 12:06:06 10° N 12:11:33 86° NNE 12:11:33 86° NNE
IGS 5A 4.5 12:13:29 44° NW 12:13:29 44° NW 12:16:35 10° NNW
Terra 3.2 12:25:39 31° NNE 12:25:39 31° NNE 12:28:25 10° N
Cosmos 2322 Rocket 2.8 12:18:47 10° N 12:23:27 46° NE 12:23:27 46° NE
Cosmos 1459 Rocket 4.0 12:25:42 68° NE 12:25:42 68° NE 12:31:25 10° N
USA 267 4.5 12:23:36 10° NNE 12:29:33 39° NW 12:35:31 10° W
Lacrosse 5 2.8 12:25:58 10° NNW 12:29:44 45° N 12:29:44 45° N
Cosmos 1763 Rocket 4.0 12:28:03 10° NNW 12:32:20 57° NW 12:32:20 57° NW
Cosmos 2360 Rocket 3.5 12:30:05 10° N 12:33:53 29° NE 12:33:53 29° NE
Cosmos 1980 Rocket 4.0 12:39:18 10° NW 12:43:31 22° W 12:44:08 22° WSW
Cosmos 1802 Rocket 4.4 13:01:23 62° NNW 13:01:23 62° NNW 13:06:49 10° N
USA 234 3.6 13:01:25 55° NNE 13:01:25 55° NNE 13:07:30 10° NW
ATLAS 3B R/B 3.1 13:06:12 51° WNW 13:06:51 53° NW 13:13:19 10° NNE
Cosmos 2333 Rocket 4.0 13:06:45 10° N 13:09:49 23° NNE 13:09:49 23° NNE
SL-16 R/B 4.4 13:44:45 10° NW 13:46:47 18° WNW 13:46:47 18° WNW
Cosmos 2219 Rocket 4.0 13:45:34 10° N 13:48:17 27° N 13:48:17 27° N
Cosmos 2360 Rocket 4.5 14:14:08 10° NW 14:15:38 17° NW 14:15:38 17° NW
Cosmos 2297 Rocket 4.5 14:33:03 18° NNE 14:33:03 18° NNE 14:34:26 10° NNE
Cosmos 2237 Rocket 4.2 14:43:04 10° N 14:45:18 23° N 14:45:18 23° N
Cosmos 2227 Rocket 4.1 15:22:22 26° N 15:22:22 26° N 15:24:46 10° NNE
SJ 16-02 4.3 15:50:12 13° NNE 15:50:12 13° NNE 15:50:46 10° NNE
SL-16 R/B 3.6 15:52:32 39° NE 15:52:32 39° NE 15:57:32 10° N
Cosmos 2263 Rocket 4.0 16:02:43 25° ENE 16:02:43 25° ENE 16:05:26 10° NE
SL-16 R/B 3.9 15:56:30 10° NNW 15:59:00 27° NNW 15:59:00 27° NNW
Resurs 1-4 Rocket 3.9 15:57:36 10° NNE 16:00:10 28° NE 16:00:10 28° NE
Cosmos 2344 4.5 15:57:15 10° NW 16:07:45 78° WSW 16:09:53 67° S
Cosmos 2297 Rocket 4.4 16:14:50 17° NW 16:14:50 17° NW 16:17:09 10° NNW
USA 229 DEB 4.2 16:23:03 52° N 16:23:03 52° N 16:28:25 10° NNE
USA 229 4.2 16:23:09 52° N 16:23:09 52° N 16:28:29 10° NNE
ATLAS CENTAUR R/B 4.2 16:33:55 14° ENE 16:33:55 14° ENE 16:34:39 10° NE
NOSS 3-1 (A) 4.1 16:34:49 45° N 16:34:49 45° N 16:39:08 10° NNE
ADEOS II 3.3 16:32:10 10° NNE 16:35:55 37° ENE 16:35:55 37° ENE
Cosmos 2285 Rocket 4.3 16:58:22 57° ESE 16:58:32 57° ESE 17:04:41 10° NNE
Cosmos 1943 3.9 16:57:10 10° N 17:02:38 49° ENE 17:04:11 39° ESE
USA 215 3.2 16:57:37 10° NE 17:04:09 71° SE 17:04:22 71° SE
CZ-2D R/B 3.4 16:59:29 10° N 17:03:01 32° NW 17:03:01 32° NW
Atlas Centaur 2 3.3 17:08:36 39° SE 17:08:36 39° SE 17:14:06 10° E
ARIANE 5 R/B 3.3 17:04:25 10° NNE 17:09:27 46° E 17:09:33 46° ESE
Cosmos 2150 Rocket 4.3 17:12:34 64° NE 17:12:34 64° NE 17:17:00 10° NNE
Cosmos 1809 Rocket 4.3 17:08:41 10° N 17:14:50 89° E 17:14:58 86° SSE
ATLAS 3B CENTAUR R/B 4.0 16:57:17 10° W 17:15:32 55° SSW 17:23:42 10° SE
Cosmos 2266 Rocket 4.5 17:11:50 10° NNW 17:16:46 47° NW 17:16:46 47° NW
IRS-1C 4.1 17:13:13 10° NNE 17:18:23 77° ENE 17:18:23 77° ENE
Cosmos 1953 4.1 17:29:54 26° NNW 17:29:54 26° NNW 17:31:52 10° N
Cosmos 1125 Rocket 3.5 17:28:05 72° ESE 17:28:11 72° ESE 17:33:26 10° NNE
Cosmos 1703 4.4 17:27:54 10° N 17:31:29 42° ENE 17:31:29 42° ENE
Meteor 2-21 4.3 17:28:08 10° N 17:34:11 74° W 17:34:46 68° SW
SL-16 R/B 3.9 17:37:39 23° WNW 17:37:39 23° WNW 17:40:39 10° NW
IRS-1D 4.4 17:32:41 10° N 17:36:42 37° NW 17:36:42 37° NW
Resurs 1-4 Rocket 4.1 17:38:59 10° NNW 17:41:14 15° NW 17:41:14 15° NW
Cosmos 2228 3.4 17:42:22 58° ESE 17:42:41 60° E 17:47:02 10° NNE
Cosmos 2263 Rocket 3.4 17:44:25 27° WNW 17:44:25 27° WNW 17:49:00 10° N
Meteor 1-16 Rocket 4.0 17:44:08 64° W 17:44:22 65° W 17:49:53 10° N
Nadezhda 2 Rocket 4.4 17:46:00 10° NNW 17:52:06 66° W 17:53:42 48° SSW
IDEFIX/ARIANE 42P 2.5 17:51:18 10° NNE 17:56:32 88° ESE 17:58:06 47° S
Hubble Space Telescope 2.4 18:00:52 23° SE 18:00:52 23° SE 18:03:14 10° ESE
NOSS 2-2 (C) 3.1 18:05:01 68° SE 18:05:06 69° ESE 18:08:43 10° NE
Meteor 1-11 4.5 17:59:58 10° N 18:05:42 70° E 18:11:19 10° SSE
Cosmos 1844 Rocket 2.6 18:05:40 42° SSW 18:07:41 87° WNW 18:13:16 10° NNE
Cosmos 1356 Rocket 3.3 18:06:59 59° S 18:07:44 90° SW 18:11:53 10° N
ATLAS CENTAUR R/B 2.9 18:10:06 22° NW 18:10:06 22° NW 18:13:09 10° N
Cosmos 1908 4.5 18:13:26 28° NW 18:13:26 28° NW 18:16:06 10° NNW
OAO 2 Rocket 3.3 18:11:57 45° WSW 18:13:36 76° S 18:18:52 10° E
OAO 1 Rocket 4.3 18:11:48 41° W 18:13:44 85° S 18:19:06 10° E
Cosmos 1758 Rocket 3.6 18:11:37 10° NNW 18:15:50 54° W 18:16:22 50° WSW
Cosmos 1048 Rocket 3.9 18:10:57 10° NNW 18:16:02 63° WSW 18:20:09 16° S
ADEOS II 3.6 18:12:47 10° NNW 18:16:31 20° WNW 18:16:50 20° WNW
Cosmos 2058 Rocket 3.2 18:15:17 26° S 18:17:46 72° E 18:22:12 10° N
CSL-04 DEB 4.4 18:14:46 16° SSE 18:17:47 77° ENE 18:21:44 10° N
H-2A R/B 2.1 18:18:14 10° SSE 18:22:18 73° ENE 18:26:24 10° N
Delta 2 Rocket 2.7 18:22:13 59° W 18:22:48 89° S 18:26:32 10° E
OAO 3 Rocket 3.2 18:22:06 34° W 18:24:12 72° S 18:29:08 10° ESE
USA 281 4.0 18:19:18 10° NE 18:25:37 48° ESE 18:31:53 10° S
Cosmos 2315 Rocket 4.5 18:19:46 10° S 18:25:58 62° E 18:32:15 10° NNE
Spot 4 Rocket 4.5 18:22:10 10° N 18:27:01 43° WNW 18:28:52 31° WSW
CZ-2C R/B 2.9 18:24:51 10° N 18:28:31 52° WNW 18:29:19 43° WSW
Meteor 2-15 Rocket 4.4 18:28:28 13° S 18:33:58 86° W 18:40:05 10° N
Cosmos 1269 Rocket 4.4 18:29:19 10° N 18:34:34 65° ENE 18:39:49 10° SSE
Cosmos 1825 Rocket 3.9 18:31:00 10° NNW 18:35:02 40° W 18:36:30 30° SW
Cosmos 1300 2.8 18:35:04 35° SW 18:36:20 53° W 18:40:05 10° N
Lacrosse 5 rocket 3.2 18:35:17 11° S 18:38:53 28° ESE 18:42:51 10° ENE
Landsat 5 3.2 18:37:40 10° S 18:41:34 69° W 18:45:37 10° NNW
Cosmos 1386 Rocket 4.4 18:38:45 10° NNW 18:44:39 60° W 18:50:33 10° S
Cosmos 1953 Rocket 3.8 18:41:20 10° NNW 18:45:39 49° W 18:49:43 11° SSW
ERS-2 2.0 18:43:09 10° S 18:46:46 72° WSW 18:50:25 10° NNW
USA 215 4.3 18:41:04 10° NNE 18:46:47 33° NNW 18:51:42 13° W
ARIANE 5 R/B 4.1 18:44:31 10° NNW 18:48:09 19° WNW 18:49:53 16° W
Atlas Centaur 2 3.0 18:51:12 18° WSW 18:56:18 59° S 19:04:16 10° ESE
USA 102 4.4 18:52:56 10° S 18:58:39 43° WSW 19:01:36 12° NW
Cosmos 1900 4.4 18:53:50 10° NW 18:58:55 63° WSW 19:03:59 10° SSE
MSX 4.5 18:54:27 10° N 18:59:41 37° WNW 19:04:05 14° SW
SAR-Lupe-4 4.3 18:58:49 10° SSE 19:02:18 55° ENE 19:05:49 10° N
SeaSat 1 2.5 18:57:33 10° NNE 19:02:28 66° WNW 19:07:09 11° SW
CZ-4C R/B 4.2 19:07:55 16° SW 19:09:20 21° W 19:11:55 10° NW
Meteor 2-1 Rocket 4.4 19:07:18 10° S 19:13:08 87° E 19:19:05 10° N
USA 267 3.8 19:09:11 10° ESE 19:15:37 63° NE 19:22:05 10° NW
SAR-Lupe-1 4.1 19:13:44 10° SSE 19:17:18 85° ENE 19:20:54 10° NNW
PSLV R/B 4.4 19:14:30 10° N 19:18:25 33° WNW 19:22:17 10° SW
CZ-2C R/B 3.0 19:22:50 10° N 19:27:00 35° WNW 19:31:16 10° SW
Cosmos 1892 2.7 19:24:33 10° NNW 19:28:20 63° W 19:32:05 10° S
Meteor 1-31 Rocket 2.8 19:25:10 10° NNE 19:29:02 86° ESE 19:32:50 10° SSW
Cosmos 1484 Rocket 2.6 19:27:31 10° N 19:31:15 80° WNW 19:34:59 10° SSW
deb Chang Zheng 4 4.2 19:27:36 10° N 19:31:40 39° WNW 19:35:43 10° SW
TSX-5 3.4 19:28:42 10° SW 19:31:49 55° WNW 19:34:57 10° NNE
ADEOS Rocket 3.7 19:24:56 10° SSE 19:32:33 88° WSW 19:40:24 10° NNW
Cosmos 1408 2.6 19:31:22 10° N 19:35:05 89° W 19:38:45 10° S
ATLAS 3B CENTAUR R/B 4.3 19:29:34 10° W 19:36:13 18° SW 19:40:28 10° S
Chandra Rocket (1) 4.5 19:32:49 10° SW 19:37:54 18° S 19:40:46 10° SE
ATLAS CENTAUR Rocket 4.4 19:40:30 10° WSW 20:11:01 48° S 20:16:37 10° ESE
